| time (UTC) | temp F | wind direction | speed knots | gust knots | rain 1hr in | rain 24hr in | rain mn in | humidity % | barometer mb |
| 20260507201539 | 54 | 86 | 0.9 | 3.5 | 0.00 | 0.08 | 0.08 | 79 | 1011.1 |
| 20260507201024 | 54 | 172 | 0.9 | 2.6 | 0.00 | 0.08 | 0.08 | 78 | 1011.5 |
| 20260507200520 | 54 | 101 | 0.0 | 2.6 | 0.00 | 0.08 | 0.08 | 78 | 1011.6 |
| 20260507200037 | 54 | 206 | 0.0 | 4.3 | 0.00 | 0.08 | 0.08 | 79 | 1011.6 |
| 20260507195519 | 54 | 88 | 0.9 | 5.2 | 0.00 | 0.08 | 0.08 | 81 | 1011.4 |
| 20260507195019 | 54 | 198 | 0.9 | 5.2 | 0.00 | 0.08 | 0.08 | 81 | 1011.5 |
| 20260507194537 | 54 | 0 | 0.0 | 2.6 | 0.02 | 0.08 | 0.08 | 82 | 1011.5 |
| 20260507194020 | 54 | 153 | 0.0 | 2.6 | 0.03 | 0.08 | 0.08 | 84 | 1011.6 |
| 20260507193523 | 54 | 0 | 0.9 | 2.6 | 0.04 | 0.08 | 0.08 | 85 | 1011.6 |
| 20260507193038 | 54 | 0 | 0.0 | 1.7 | 0.04 | 0.08 | 0.08 | 84 | 1011.5 |
| 20260507192520 | 54 | 88 | 0.0 | 3.5 | 0.04 | 0.08 | 0.08 | 81 | 1011.7 |
| 20260507192019 | 54 | 0 | 0.0 | 3.5 | 0.04 | 0.08 | 0.08 | 82 | 1011.8 |
| 20260507191542 | 54 | 30 | 0.0 | 4.3 | 0.04 | 0.08 | 0.08 | 81 | 1011.9 |
| 20260507191016 | 54 | 13 | 1.7 | 4.3 | 0.04 | 0.08 | 0.08 | 81 | 1011.9 |
| 20260507190519 | 53 | 200 | 0.0 | 4.3 | 0.04 | 0.08 | 0.08 | 81 | 1011.9 |
| 20260507190040 | 53 | 292 | 0.9 | 3.5 | 0.04 | 0.08 | 0.08 | 82 | 1011.9 |
| 20260507185518 | 53 | 0 | 0.0 | 1.7 | 0.04 | 0.08 | 0.08 | 82 | 1012.0 |
| 20260507185019 | 53 | 0 | 0.0 | 1.7 | 0.03 | 0.07 | 0.07 | 84 | 1011.9 |
| 20260507184538 | 55 | 0 | 0.0 | 1.7 | 0.02 | 0.06 | 0.06 | 78 | 1012.0 |
| 20260507184020 | 55 | 0 | 0.0 | 2.6 | 0.01 | 0.05 | 0.05 | 75 | 1011.9 |
| 20260507183518 | 55 | 0 | 0.9 | 2.6 | 0.00 | 0.04 | 0.04 | 72 | 1012.1 |
| 20260507183043 | 55 | 0 | 0.9 | 2.6 | 0.00 | 0.04 | 0.04 | 71 | 1012.3 |
| 20260507182517 | 55 | 74 | 0.9 | 5.2 | 0.00 | 0.04 | 0.04 | 70 | 1011.8 |
| 20260507182021 | 55 | 0 | 1.7 | 5.2 | 0.00 | 0.04 | 0.04 | 69 | 1011.7 |
| 20260507181537 | 55 | 41 | 0.9 | 4.3 | 0.00 | 0.04 | 0.04 | 70 | 1011.8 |
| 20260507181021 | 55 | 78 | 0.0 | 4.3 | 0.00 | 0.04 | 0.04 | 72 | 1012.1 |
| 20260507180520 | 55 | 0 | 0.9 | 3.5 | 0.00 | 0.04 | 0.04 | 71 | 1012.0 |
| 20260507180048 | 55 | 128 | 0.9 | 3.5 | 0.00 | 0.04 | 0.04 | 76 | 1012.0 |
| 20260507175523 | 55 | 59 | 0.9 | 3.5 | 0.00 | 0.04 | 0.04 | 74 | 1012.0 |
| 20260507175019 | 55 | 0 | 0.0 | 4.3 | 0.00 | 0.04 | 0.04 | 73 | 1012.2 |
| 20260507174543 | 56 | 148 | 0.0 | 4.3 | 0.00 | 0.04 | 0.04 | 75 | 1012.1 |
| 20260507174021 | 56 | 156 | 0.0 | 4.3 | 0.00 | 0.04 | 0.04 | 74 | 1012.2 |
| 20260507173523 | 56 | 121 | 0.9 | 4.3 | 0.00 | 0.04 | 0.04 | 75 | 1012.1 |
| 20260507173044 | 56 | 5 | 0.0 | 5.2 | 0.00 | 0.04 | 0.04 | 76 | 1012.3 |
| 20260507172521 | 56 | 146 | 0.0 | 5.2 | 0.00 | 0.04 | 0.04 | 73 | 1012.2 |
| 20260507172021 | 56 | 50 | 0.9 | 5.2 | 0.00 | 0.04 | 0.04 | 73 | 1012.3 |
| 20260507171545 | 56 | 55 | 0.0 | 3.5 | 0.00 | 0.04 | 0.04 | 74 | 1012.5 |
| 20260507171021 | 56 | 109 | 1.7 | 4.3 | 0.00 | 0.04 | 0.04 | 73 | 1012.2 |
| 20260507170522 | 56 | 131 | 0.9 | 4.3 | 0.00 | 0.04 | 0.04 | 74 | 1012.5 |
| 20260507170038 | 56 | 0 | 0.0 | 4.3 | 0.00 | 0.04 | 0.04 | 75 | 1012.5 |
| 20260507165519 | 56 | 150 | 0.9 | 4.3 | 0.00 | 0.04 | 0.04 | 74 | 1012.5 |
| 20260507165020 | 56 | 242 | 0.0 | 3.5 | 0.00 | 0.04 | 0.04 | 76 | 1012.4 |
| 20260507164536 | 56 | 202 | 0.0 | 2.6 | 0.00 | 0.04 | 0.04 | 73 | 1012.6 |
| 20260507164019 | 56 | 314 | 0.9 | 2.6 | 0.00 | 0.04 | 0.04 | 73 | 1012.4 |
| 20260507163519 | 56 | 0 | 0.9 | 4.3 | 0.00 | 0.04 | 0.04 | 76 | 1012.5 |
| 20260507163042 | 56 | 0 | 0.0 | 4.3 | 0.00 | 0.04 | 0.04 | 75 | 1012.4 |
| 20260507162522 | 56 | 24 | 0.0 | 2.6 | 0.00 | 0.04 | 0.04 | 77 | 1012.7 |
| 20260507162020 | 56 | 263 | 0.9 | 2.6 | 0.00 | 0.04 | 0.04 | 78 | 1012.7 |
| 20260507161541 | 56 | 92 | 0.0 | 3.5 | 0.00 | 0.04 | 0.04 | 78 | 1012.8 |
| 20260507161021 | 56 | 46 | 0.9 | 3.5 | 0.00 | 0.04 | 0.04 | 78 | 1012.8 |
| 20260507160520 | 56 | 0 | 0.9 | 3.5 | 0.00 | 0.04 | 0.04 | 79 | 1013.0 |
| 20260507160041 | 56 | 0 | 0.0 | 4.3 | 0.00 | 0.04 | 0.04 | 79 | 1013.1 |
| 20260507155518 | 56 | 88 | 0.9 | 4.3 | 0.00 | 0.04 | 0.04 | 79 | 1013.1 |
| 20260507155024 | 56 | 60 | 0.0 | 3.5 | 0.00 | 0.04 | 0.04 | 80 | 1013.1 |
| 20260507154540 | 56 | 0 | 0.9 | 3.5 | 0.00 | 0.04 | 0.04 | 79 | 1013.1 |
| 20260507154021 | 56 | 94 | 0.9 | 4.3 | 0.00 | 0.04 | 0.04 | 81 | 1013.0 |
| 20260507153525 | 55 | 109 | 0.0 | 4.3 | 0.00 | 0.04 | 0.04 | 81 | 1013.0 |
| 20260507153037 | 55 | 19 | 1.7 | 4.3 | 0.01 | 0.04 | 0.04 | 81 | 1013.1 |
| 20260507152522 | 55 | 53 | 0.0 | 6.1 | 0.01 | 0.04 | 0.04 | 84 | 1013.2 |
| 20260507152021 | 55 | 0 | 0.9 | 6.1 | 0.01 | 0.04 | 0.04 | 83 | 1013.2 |
| 20260507151544 | 55 | 0 | 0.0 | 4.3 | 0.01 | 0.04 | 0.04 | 82 | 1013.1 |
| 20260507151021 | 55 | 79 | 0.0 | 4.3 | 0.01 | 0.04 | 0.04 | 83 | 1013.0 |
| 20260507150521 | 55 | 0 | 0.9 | 6.1 | 0.01 | 0.04 | 0.04 | 83 | 1012.8 |
| 20260507150043 | 55 | 0 | 0.0 | 6.1 | 0.01 | 0.04 | 0.04 | 84 | 1013.0 |
| 20260507145519 | 55 | 53 | 0.9 | 6.1 | 0.01 | 0.07 | 0.04 | 86 | 1013.0 |
| 20260507145017 | 55 | 0 | 0.0 | 2.6 | 0.01 | 0.07 | 0.04 | 86 | 1012.8 |
| 20260507144607 | 55 | 31 | 0.9 | 2.6 | 0.01 | 0.07 | 0.04 | 85 | 1013.0 |
| 20260507144018 | 54 | 0 | 0.0 | 7.0 | 0.01 | 0.07 | 0.04 | 85 | 1013.4 |
| 20260507143519 | 54 | 0 | 0.9 | 7.0 | 0.01 | 0.07 | 0.04 | 84 | 1013.1 |
| 20260507143040 | 54 | 45 | 0.9 | 2.6 | 0.00 | 0.06 | 0.03 | 85 | 1013.1 |
| 20260507142519 | 54 | 0 | 0.0 | 1.7 | 0.00 | 0.06 | 0.03 | 85 | 1013.1 |
| 20260507142024 | 54 | 77 | 0.0 | 1.7 | 0.00 | 0.06 | 0.03 | 86 | 1013.2 |
| 20260507141540 | 54 | 19 | 0.0 | 3.5 | 0.00 | 0.06 | 0.03 | 85 | 1013.4 |
| 20260507141018 | 54 | 0 | 0.0 | 3.5 | 0.00 | 0.06 | 0.03 | 84 | 1013.4 |
| 20260507140520 | 54 | 0 | 0.0 | 2.6 | 0.00 | 0.06 | 0.03 | 84 | 1013.4 |
| 20260507140037 | 54 | 0 | 0.0 | 3.5 | 0.00 | 0.06 | 0.03 | 84 | 1013.5 |
| 20260507135518 | 54 | 174 | 0.0 | 3.5 | 0.00 | 0.09 | 0.03 | 84 | 1013.2 |
| 20260507135018 | 54 | 51 | 0.9 | 5.2 | 0.00 | 0.09 | 0.03 | 83 | 1013.2 |
| 20260507134540 | 55 | 90 | 1.7 | 5.2 | 0.00 | 0.09 | 0.03 | 84 | 1013.4 |
| 20260507134018 | 55 | 139 | 0.9 | 5.2 | 0.00 | 0.09 | 0.03 | 84 | 1013.3 |
| 20260507133518 | 55 | 0 | 0.9 | 8.7 | 0.00 | 0.09 | 0.03 | 85 | 1013.3 |
| 20260507133042 | 55 | 161 | 0.9 | 8.7 | 0.00 | 0.09 | 0.03 | 85 | 1013.2 |
| 20260507132518 | 55 | 80 | 0.9 | 2.6 | 0.00 | 0.09 | 0.03 | 85 | 1013.3 |
| 20260507132017 | 55 | 70 | 0.0 | 6.1 | 0.00 | 0.09 | 0.03 | 86 | 1013.4 |
| 20260507131541 | 55 | 0 | 0.0 | 6.1 | 0.00 | 0.09 | 0.03 | 84 | 1013.4 |
| 20260507131018 | 55 | 92 | 0.9 | 6.1 | 0.00 | 0.09 | 0.03 | 84 | 1013.8 |
| 20260507130518 | 55 | 0 | 0.0 | 3.5 | 0.00 | 0.09 | 0.03 | 85 | 1013.4 |
| 20260507130037 | 55 | 0 | 0.0 | 3.5 | 0.00 | 0.09 | 0.03 | 85 | 1013.3 |
| 20260507125519 | 55 | 239 | 0.0 | 3.5 | 0.00 | 0.09 | 0.03 | 85 | 1013.4 |
| 20260507125019 | 55 | 77 | 0.9 | 3.5 | 0.00 | 0.09 | 0.03 | 85 | 1013.2 |
| 20260507124537 | 55 | 45 | 0.0 | 2.6 | 0.00 | 0.09 | 0.03 | 86 | 1013.1 |
| 20260507124024 | 55 | 159 | 0.0 | 2.6 | 0.00 | 0.09 | 0.03 | 86 | 1012.9 |
| 20260507123519 | 55 | 0 | 0.0 | 6.1 | 0.00 | 0.09 | 0.03 | 85 | 1013.1 |
| 20260507123037 | 55 | 0 | 1.7 | 6.1 | 0.00 | 0.09 | 0.03 | 85 | 1013.2 |
| 20260507122519 | 55 | 36 | 0.9 | 4.3 | 0.00 | 0.09 | 0.03 | 86 | 1013.2 |
| 20260507122019 | 55 | 0 | 0.0 | 1.7 | 0.00 | 0.09 | 0.03 | 86 | 1013.1 |
| 20260507121535 | 55 | 0 | 0.0 | 3.5 | 0.00 | 0.09 | 0.03 | 86 | 1013.1 |
| 20260507121019 | 55 | 87 | 0.0 | 3.5 | 0.00 | 0.09 | 0.03 | 86 | 1013.2 |
| 20260507120518 | 55 | 56 | 0.9 | 3.5 | 0.00 | 0.09 | 0.03 | 86 | 1012.9 |
| 20260507120042 | 55 | 146 | 0.0 | 1.7 | 0.00 | 0.09 | 0.03 | 86 | 1012.9 |
| 20260507115519 | 55 | 0 | 0.0 | 2.6 | 0.00 | 0.09 | 0.03 | 86 | 1013.1 |
| 20260507115019 | 54 | 71 | 0.0 | 3.5 | 0.00 | 0.09 | 0.03 | 86 | 1013.1 |
| 20260507114542 | 54 | 11 | 0.0 | 5.2 | 0.00 | 0.09 | 0.03 | 85 | 1013.1 |
| 20260507114021 | 54 | 72 | 0.9 | 5.2 | 0.00 | 0.09 | 0.03 | 86 | 1012.9 |
| 20260507113518 | 54 | 104 | 1.7 | 5.2 | 0.00 | 0.09 | 0.03 | 86 | 1012.7 |
| 20260507113040 | 54 | 0 | 0.9 | 5.2 | 0.00 | 0.09 | 0.03 | 87 | 1012.9 |
| 20260507112525 | 55 | 0 | 0.0 | 4.3 | 0.00 | 0.09 | 0.03 | 87 | 1012.8 |
| 20260507112021 | 55 | 90 | 0.9 | 4.3 | 0.00 | 0.09 | 0.03 | 87 | 1012.7 |
| 20260507111544 | 55 | 51 | 0.0 | 2.6 | 0.00 | 0.09 | 0.03 | 88 | 1012.5 |
| 20260507111018 | 55 | 10 | 0.0 | 2.6 | 0.00 | 0.09 | 0.03 | 88 | 1012.2 |
| 20260507110519 | 55 | 0 | 0.0 | 2.6 | 0.00 | 0.09 | 0.03 | 88 | 1012.1 |
| 20260507110037 | 55 | 59 | 0.0 | 3.5 | 0.00 | 0.09 | 0.03 | 88 | 1012.0 |
| 20260507105522 | 55 | 38 | 0.9 | 5.2 | 0.00 | 0.09 | 0.03 | 88 | 1012.0 |
| 20260507105019 | 55 | 0 | 0.0 | 5.2 | 0.00 | 0.09 | 0.03 | 88 | 1011.9 |
| 20260507104543 | 55 | 0 | 0.0 | 3.5 | 0.00 | 0.09 | 0.03 | 88 | 1012.0 |
| 20260507104019 | 55 | 0 | 0.9 | 3.5 | 0.00 | 0.09 | 0.03 | 88 | 1012.1 |
| 20260507103519 | 55 | 24 | 0.0 | 2.6 | 0.00 | 0.09 | 0.03 | 88 | 1012.0 |
| 20260507103042 | 55 | 0 | 0.0 | 3.5 | 0.00 | 0.09 | 0.03 | 88 | 1012.2 |
| 20260507102519 | 55 | 0 | 0.0 | 3.5 | 0.00 | 0.09 | 0.03 | 88 | 1012.3 |
| 20260507102021 | 55 | 0 | 0.0 | 3.5 | 0.00 | 0.09 | 0.03 | 88 | 1012.0 |
| 20260507101546 | 55 | 75 | 0.0 | 3.5 | 0.00 | 0.09 | 0.03 | 88 | 1012.0 |
| 20260507101018 | 55 | 48 | 0.9 | 3.5 | 0.00 | 0.09 | 0.03 | 88 | 1012.0 |
| 20260507100518 | 55 | 50 | 0.9 | 3.5 | 0.00 | 0.09 | 0.03 | 88 | 1012.2 |
| 20260507100043 | 55 | 197 | 0.0 | 2.6 | 0.00 | 0.09 | 0.03 | 88 | 1012.4 |
| 20260507095519 | 55 | 0 | 0.9 | 4.3 | 0.00 | 0.09 | 0.03 | 88 | 1012.1 |
| 20260507095018 | 55 | 48 | 1.7 | 6.1 | 0.00 | 0.09 | 0.03 | 89 | 1011.7 |
| 20260507094546 | 55 | 0 | 0.9 | 8.7 | 0.00 | 0.09 | 0.03 | 89 | 1011.5 |
| 20260507094019 | 55 | 61 | 2.6 | 8.7 | 0.00 | 0.09 | 0.03 | 89 | 1011.5 |
| 20260507093519 | 56 | 102 | 3.5 | 8.7 | 0.00 | 0.09 | 0.03 | 90 | 1011.5 |
| 20260507093043 | 56 | 61 | 1.7 | 5.2 | 0.00 | 0.09 | 0.03 | 91 | 1012.0 |
| 20260507092521 | 56 | 80 | 0.9 | 3.5 | 0.00 | 0.09 | 0.03 | 91 | 1012.1 |
| 20260507092022 | 56 | 41 | 0.9 | 3.5 | 0.00 | 0.09 | 0.03 | 91 | 1012.1 |
| 20260507091539 | 56 | 67 | 0.9 | 6.1 | 0.00 | 0.09 | 0.03 | 91 | 1011.8 |
| 20260507091023 | 57 | 146 | 0.9 | 6.1 | 0.00 | 0.09 | 0.03 | 91 | 1011.6 |
| 20260507090523 | 57 | 65 | 0.9 | 7.8 | 0.00 | 0.09 | 0.03 | 91 | 1011.9 |
| 20260507090042 | 57 | 94 | 0.9 | 7.8 | 0.00 | 0.09 | 0.03 | 91 | 1011.7 |
| 20260507085519 | 57 | 106 | 1.7 | 7.0 | 0.00 | 0.09 | 0.03 | 91 | 1011.5 |
| 20260507085019 | 57 | 88 | 1.7 | 7.0 | 0.00 | 0.09 | 0.03 | 91 | 1011.4 |
| 20260507084544 | 57 | 73 | 1.7 | 7.0 | 0.00 | 0.09 | 0.03 | 91 | 1011.5 |
| 20260507084018 | 57 | 85 | 0.9 | 5.2 | 0.00 | 0.09 | 0.03 | 91 | 1011.5 |
| 20260507083519 | 57 | 52 | 0.9 | 5.2 | 0.00 | 0.09 | 0.03 | 90 | 1011.8 |
| 20260507083040 | 58 | 0 | 0.9 | 4.3 | 0.00 | 0.09 | 0.03 | 91 | 1011.7 |
| 20260507082521 | 58 | 67 | 0.0 | 4.3 | 0.00 | 0.09 | 0.03 | 90 | 1011.6 |
| 20260507082018 | 58 | 119 | 0.0 | 3.5 | 0.00 | 0.09 | 0.03 | 90 | 1011.6 |
| 20260507081540 | 58 | 0 | 0.0 | 3.5 | 0.00 | 0.09 | 0.03 | 90 | 1011.4 |
| 20260507081020 | 58 | 89 | 0.0 | 3.5 | 0.00 | 0.09 | 0.03 | 90 | 1011.1 |
| 20260507080522 | 58 | 120 | 0.0 | 4.3 | 0.00 | 0.09 | 0.03 | 90 | 1011.3 |
| 20260507080040 | 59 | 0 | 0.9 | 4.3 | 0.00 | 0.09 | 0.03 | 90 | 1011.3 |
| 20260507075520 | 59 | 75 | 0.9 | 2.6 | 0.00 | 0.09 | 0.03 | 90 | 1011.1 |
| 20260507075022 | 59 | 0 | 0.0 | 2.6 | 0.00 | 0.09 | 0.03 | 90 | 1011.4 |
| 20260507074538 | 59 | 0 | 0.9 | 3.5 | 0.00 | 0.09 | 0.03 | 90 | 1011.5 |
| 20260507074020 | 60 | 275 | 0.9 | 3.5 | 0.00 | 0.09 | 0.03 | 91 | 1011.4 |
| 20260507073519 | 60 | 19 | 0.0 | 3.5 | 0.00 | 0.09 | 0.03 | 91 | 1011.1 |
| 20260507073035 | 61 | 0 | 0.0 | 3.5 | 0.00 | 0.09 | 0.03 | 91 | 1010.9 |
| 20260507072522 | 61 | 91 | 0.9 | 8.7 | 0.00 | 0.09 | 0.03 | 92 | 1010.9 |
| 20260507072018 | 62 | 33 | 0.9 | 8.7 | 0.00 | 0.09 | 0.03 | 92 | 1010.7 |
| 20260507071542 | 63 | 82 | 1.7 | 8.7 | 0.00 | 0.09 | 0.03 | 92 | 1010.8 |
| 20260507071019 | 63 | 11 | 1.7 | 6.1 | 0.00 | 0.09 | 0.03 | 93 | 1010.6 |
| 20260507070523 | 64 | 9 | 0.0 | 1.7 | 0.00 | 0.09 | 0.03 | 93 | 1010.4 |
| 20260507070044 | 64 | 0 | 0.0 | 1.7 | 0.00 | 0.09 | 0.03 | 93 | 1010.1 |
| 20260507065518 | 64 | 0 | 0.0 | 1.7 | 0.00 | 0.09 | 0.03 | 93 | 1010.1 |
| 20260507065019 | 64 | 0 | 0.0 | 1.7 | 0.00 | 0.09 | 0.03 | 93 | 1009.9 |
| 20260507064542 | 64 | 107 | 0.0 | 1.7 | 0.00 | 0.09 | 0.03 | 93 | 1010.1 |
| 20260507064022 | 64 | 219 | 0.0 | 0.9 | 0.00 | 0.09 | 0.03 | 93 | 1010.4 |
| 20260507063521 | 64 | 0 | 0.0 | 0.9 | 0.00 | 0.09 | 0.03 | 93 | 1010.4 |
| 20260507063046 | 64 | 0 | 0.0 | 0.9 | 0.01 | 0.09 | 0.03 | 92 | 1010.6 |
| 20260507062518 | 64 | 0 | 0.0 | 0.9 | 0.01 | 0.09 | 0.03 | 92 | 1010.3 |
| 20260507062018 | 64 | 0 | 0.0 | 0.9 | 0.01 | 0.09 | 0.03 | 92 | 1010.4 |
| 20260507061538 | 64 | 0 | 0.0 | 1.7 | 0.01 | 0.09 | 0.03 | 92 | 1010.7 |
| 20260507061021 | 64 | 0 | 0.0 | 1.7 | 0.01 | 0.09 | 0.03 | 92 | 1010.6 |
| 20260507060519 | 64 | 0 | 0.0 | 0.9 | 0.01 | 0.09 | 0.03 | 92 | 1010.6 |
| 20260507060049 | 64 | 0 | 0.0 | 1.7 | 0.01 | 0.09 | 0.03 | 92 | 1010.3 |
| 20260507055522 | 64 | 0 | 0.0 | 1.7 | 0.01 | 0.09 | 0.03 | 92 | 1010.3 |
| 20260507055021 | 64 | 0 | 0.0 | 0.9 | 0.01 | 0.09 | 0.03 | 92 | 1010.4 |
| 20260507054545 | 64 | 0 | 0.0 | 0.9 | 0.01 | 0.09 | 0.03 | 91 | 1009.9 |
| 20260507054019 | 65 | 0 | 0.0 | 0.9 | 0.01 | 0.09 | 0.03 | 92 | 1009.7 |
| 20260507053519 | 65 | 350 | 0.0 | 1.7 | 0.01 | 0.09 | 0.03 | 91 | 1009.6 |
| 20260507053047 | 65 | 0 | 0.0 | 1.7 | 0.00 | 0.08 | 0.02 | 91 | 1009.4 |
| 20260507052521 | 65 | 0 | 0.0 | 0.9 | 0.02 | 0.08 | 0.02 | 91 | 1009.7 |
| 20260507052019 | 65 | 0 | 0.0 | 1.7 | 0.02 | 0.08 | 0.02 | 91 | 1009.6 |
| 20260507051540 | 65 | 0 | 0.0 | 1.7 | 0.02 | 0.08 | 0.02 | 91 | 1009.7 |
| 20260507051020 | 65 | 0 | 0.0 | 0.9 | 0.02 | 0.08 | 0.02 | 91 | 1009.7 |
| 20260507050520 | 65 | 0 | 0.0 | 2.6 | 0.02 | 0.08 | 0.02 | 91 | 1009.6 |
| 20260507050041 | 65 | 0 | 0.0 | 2.6 | 0.02 | 0.08 | 0.02 | 90 | 1009.3 |
| 20260507045519 | 65 | 226 | 0.0 | 2.6 | 0.02 | 0.08 | 0.02 | 90 | 1009.6 |
| 20260507045018 | 65 | 0 | 0.0 | 2.6 | 0.02 | 0.08 | 0.02 | 90 | 1009.9 |
| 20260507044553 | 66 | 227 | 0.0 | 2.6 | 0.02 | 0.08 | 0.02 | 90 | 1010.0 |
| 20260507044018 | 66 | 352 | 0.9 | 6.1 | 0.02 | 0.08 | 0.02 | 90 | 1010.1 |
| 20260507043521 | 66 | 0 | 0.9 | 6.1 | 0.02 | 0.08 | 0.02 | 89 | 1010.3 |
| 20260507043041 | 66 | 0 | 0.0 | 4.3 | 0.02 | 0.08 | 0.02 | 89 | 1010.3 |
| 20260507042518 | 66 | 301 | 0.9 | 7.0 | 0.00 | 0.06 | 0.00 | 89 | 1010.2 |
| 20260507042018 | 66 | 175 | 1.7 | 7.0 | 0.00 | 0.06 | 0.00 | 88 | 1010.4 |
| 20260507041541 | 66 | 252 | 1.7 | 6.1 | 0.00 | 0.06 | 0.00 | 88 | 1010.5 |
| 20260507041020 | 66 | 309 | 0.0 | 3.5 | 0.00 | 0.06 | 0.00 | 87 | 1010.8 |
| 20260507040520 | 66 | 215 | 0.9 | 3.5 | 0.00 | 0.06 | 0.00 | 87 | 1010.8 |
| 20260507040040 | 66 | 0 | 0.0 | 1.7 | 0.00 | 0.06 | 0.00 | 87 | 1010.6 |
| 20260507035519 | 66 | 0 | 0.0 | 1.7 | 0.00 | 0.06 | 0.06 | 87 | 1010.4 |
| 20260507035021 | 66 | 223 | 0.0 | 2.6 | 0.00 | 0.06 | 0.06 | 87 | 1010.5 |
| 20260507034543 | 66 | 0 | 0.0 | 2.6 | 0.00 | 0.06 | 0.06 | 87 | 1010.7 |
| 20260507034020 | 66 | 0 | 0.9 | 2.6 | 0.00 | 0.06 | 0.06 | 87 | 1010.6 |
| 20260507033518 | 66 | 266 | 0.0 | 2.6 | 0.00 | 0.06 | 0.06 | 86 | 1010.7 |
| 20260507033040 | 66 | 0 | 0.0 | 2.6 | 0.00 | 0.06 | 0.06 | 86 | 1010.7 |
| 20260507032519 | 66 | 195 | 0.0 | 2.6 | 0.00 | 0.06 | 0.06 | 86 | 1010.8 |
| 20260507032020 | 66 | 0 | 0.0 | 1.7 | 0.00 | 0.06 | 0.06 | 86 | 1011.0 |
| 20260507031536 | 67 | 0 | 0.0 | 0.9 | 0.00 | 0.06 | 0.06 | 86 | 1010.9 |
| 20260507031019 | 67 | 0 | 0.0 | 2.6 | 0.00 | 0.06 | 0.06 | 86 | 1011.0 |
| 20260507030525 | 67 | 0 | 0.0 | 2.6 | 0.00 | 0.06 | 0.06 | 86 | 1010.7 |
| 20260507030042 | 67 | 0 | 0.9 | 3.5 | 0.00 | 0.06 | 0.06 | 86 | 1010.8 |
| 20260507025520 | 67 | 201 | 0.9 | 5.2 | 0.00 | 0.06 | 0.06 | 86 | 1010.6 |
| 20260507025019 | 67 | 0 | 0.9 | 5.2 | 0.00 | 0.06 | 0.06 | 86 | 1010.9 |
| 20260507024544 | 67 | 0 | 0.0 | 2.6 | 0.00 | 0.06 | 0.06 | 85 | 1010.9 |
| 20260507024021 | 67 | 232 | 0.0 | 2.6 | 0.00 | 0.06 | 0.06 | 85 | 1010.6 |
| 20260507023522 | 67 | 254 | 0.9 | 6.1 | 0.00 | 0.06 | 0.06 | 85 | 1010.4 |
| 20260507023040 | 67 | 285 | 0.0 | 6.1 | 0.00 | 0.06 | 0.06 | 85 | 1010.4 |
| 20260507022520 | 67 | 267 | 0.9 | 6.1 | 0.00 | 0.06 | 0.06 | 85 | 1010.3 |
| 20260507022019 | 67 | 0 | 0.0 | 2.6 | 0.00 | 0.06 | 0.06 | 85 | 1009.7 |
| 20260507021540 | 67 | 182 | 0.9 | 4.3 | 0.00 | 0.06 | 0.06 | 85 | 1009.8 |
| 20260507021020 | 67 | 0 | 0.9 | 4.3 | 0.00 | 0.06 | 0.06 | 84 | 1009.9 |
| 20260507020520 | 67 | 106 | 0.9 | 4.3 | 0.00 | 0.06 | 0.06 | 84 | 1009.7 |
| 20260507020049 | 67 | 281 | 0.9 | 2.6 | 0.00 | 0.06 | 0.06 | 84 | 1009.9 |
| 20260507015525 | 67 | 209 | 0.0 | 2.6 | 0.00 | 0.06 | 0.06 | 83 | 1009.9 |
| 20260507015021 | 67 | 0 | 0.0 | 2.6 | 0.00 | 0.06 | 0.06 | 83 | 1010.0 |
| 20260507014543 | 67 | 178 | 0.0 | 1.7 | 0.00 | 0.06 | 0.06 | 83 | 1010.3 |
| 20260507014023 | 67 | 0 | 0.0 | 3.5 | 0.00 | 0.06 | 0.06 | 83 | 1010.3 |
| 20260507013520 | 67 | 0 | 0.0 | 3.5 | 0.00 | 0.06 | 0.06 | 83 | 1010.3 |
| 20260507013054 | 68 | 299 | 0.9 | 3.5 | 0.00 | 0.06 | 0.06 | 82 | 1010.4 |
| 20260507012519 | 68 | 244 | 0.0 | 2.6 | 0.00 | 0.06 | 0.06 | 82 | 1010.3 |
| 20260507012021 | 68 | 0 | 0.0 | 5.2 | 0.00 | 0.06 | 0.06 | 82 | 1010.3 |
| 20260507011543 | 68 | 265 | 0.0 | 5.2 | 0.00 | 0.06 | 0.06 | 82 | 1010.4 |
| 20260507011021 | 68 | 0 | 0.0 | 3.5 | 0.00 | 0.06 | 0.06 | 82 | 1010.5 |
| 20260507010520 | 68 | 182 | 0.9 | 3.5 | 0.00 | 0.06 | 0.06 | 82 | 1010.6 |
| 20260507010044 | 68 | 0 | 0.0 | 5.2 | 0.00 | 0.06 | 0.06 | 81 | 1010.5 |
| 20260507005521 | 68 | 293 | 1.7 | 5.2 | 0.00 | 0.06 | 0.06 | 81 | 1010.4 |
| 20260507005018 | 68 | 0 | 0.0 | 8.7 | 0.00 | 0.06 | 0.06 | 81 | 1010.4 |
| 20260507004536 | 68 | 0 | 0.9 | 8.7 | 0.00 | 0.06 | 0.06 | 81 | 1010.4 |
| 20260507004021 | 68 | 324 | 1.7 | 8.7 | 0.00 | 0.06 | 0.06 | 81 | 1010.4 |
| 20260507003521 | 69 | 309 | 0.0 | 1.7 | 0.00 | 0.06 | 0.06 | 80 | 1010.2 |
| 20260507003044 | 69 | 0 | 0.0 | 2.6 | 0.00 | 0.06 | 0.06 | 80 | 1010.1 |
| 20260507002521 | 69 | 0 | 0.0 | 2.6 | 0.00 | 0.06 | 0.06 | 80 | 1010.2 |
| 20260507002019 | 69 | 252 | 0.0 | 2.6 | 0.00 | 0.06 | 0.06 | 80 | 1010.3 |
| 20260507001542 | 69 | 132 | 0.0 | 4.3 | 0.00 | 0.06 | 0.06 | 80 | 1010.4 |
| 20260507001020 | 69 | 219 | 0.0 | 5.2 | 0.00 | 0.06 | 0.06 | 79 | 1010.6 |
| 20260507000522 | 69 | 212 | 1.7 | 5.2 | 0.00 | 0.06 | 0.06 | 79 | 1010.3 |
| 20260507000045 | 69 | 0 | 0.9 | 7.0 | 0.00 | 0.06 | 0.06 | 79 | 1010.2 |
| 20260506235520 | 69 | 240 | 1.7 | 7.0 | 0.00 | 0.06 | 0.06 | 79 | 1010.2 |
| 20260506235020 | 70 | 177 | 2.6 | 7.0 | 0.00 | 0.06 | 0.06 | 79 | 1010.0 |
| 20260506234540 | 70 | 219 | 0.9 | 6.1 | 0.00 | 0.06 | 0.06 | 79 | 1010.3 |
| 20260506234023 | 70 | 140 | 0.0 | 3.5 | 0.00 | 0.06 | 0.06 | 78 | 1010.1 |
| 20260506233520 | 70 | 352 | 0.0 | 4.3 | 0.00 | 0.06 | 0.06 | 78 | 1010.3 |
| 20260506233037 | 70 | 211 | 0.9 | 5.2 | 0.00 | 0.06 | 0.06 | 78 | 1010.3 |
| 20260506232520 | 70 | 311 | 0.9 | 6.1 | 0.00 | 0.06 | 0.06 | 78 | 1010.3 |
| 20260506232022 | 70 | 278 | 0.9 | 6.1 | 0.00 | 0.06 | 0.06 | 78 | 1010.3 |
| 20260506231543 | 70 | 221 | 2.6 | 6.1 | 0.00 | 0.06 | 0.06 | 77 | 1010.0 |
| 20260506231020 | 70 | 112 | 0.9 | 7.0 | 0.00 | 0.06 | 0.06 | 77 | 1010.0 |
| 20260506230524 | 70 | 0 | 1.7 | 7.0 | 0.00 | 0.06 | 0.06 | 77 | 1010.0 |
| 20260506230042 | 70 | 262 | 1.7 | 7.0 | 0.00 | 0.06 | 0.06 | 77 | 1010.0 |
| 20260506225521 | 70 | 169 | 1.7 | 10.4 | 0.00 | 0.06 | 0.06 | 77 | 1009.9 |
| 20260506225020 | 70 | 148 | 1.7 | 10.4 | 0.00 | 0.06 | 0.06 | 77 | 1009.9 |
| 20260506224554 | 70 | 205 | 2.6 | 10.4 | 0.00 | 0.06 | 0.06 | 77 | 1009.8 |
| 20260506224020 | 71 | 211 | 3.5 | 7.8 | 0.00 | 0.06 | 0.06 | 77 | 1009.8 |
| 20260506223519 | 71 | 154 | 1.7 | 6.1 | 0.00 | 0.06 | 0.06 | 77 | 1009.8 |
| 20260506223041 | 71 | 225 | 1.7 | 6.1 | 0.00 | 0.06 | 0.06 | 76 | 1009.9 |
| 20260506222524 | 71 | 196 | 1.7 | 8.7 | 0.00 | 0.06 | 0.06 | 76 | 1009.9 |
| 20260506222021 | 71 | 252 | 1.7 | 8.7 | 0.00 | 0.06 | 0.06 | 76 | 1009.9 |
| 20260506221537 | 71 | 109 | 1.7 | 8.7 | 0.00 | 0.06 | 0.06 | 76 | 1009.9 |
| 20260506221020 | 71 | 184 | 3.5 | 9.6 | 0.00 | 0.06 | 0.06 | 76 | 1009.8 |
| 20260506220519 | 71 | 235 | 2.6 | 9.6 | 0.00 | 0.06 | 0.06 | 76 | 1009.9 |
| 20260506220041 | 71 | 194 | 1.7 | 10.4 | 0.00 | 0.06 | 0.06 | 77 | 1009.8 |
| 20260506215521 | 71 | 163 | 2.6 | 10.4 | 0.00 | 0.06 | 0.06 | 77 | 1009.8 |
| 20260506215018 | 71 | 109 | 2.6 | 10.4 | 0.00 | 0.06 | 0.06 | 77 | 1010.0 |
| 20260506214553 | 71 | 0 | 2.6 | 8.7 | 0.00 | 0.06 | 0.06 | 77 | 1010.0 |
| 20260506214020 | 71 | 194 | 0.9 | 9.6 | 0.00 | 0.06 | 0.06 | 77 | 1010.0 |
| 20260506213519 | 71 | 187 | 1.7 | 9.6 | 0.00 | 0.06 | 0.06 | 77 | 1009.9 |
| 20260506213045 | 71 | 229 | 1.7 | 9.6 | 0.00 | 0.06 | 0.06 | 77 | 1009.8 |
| 20260506212522 | 71 | 231 | 3.5 | 9.6 | 0.00 | 0.06 | 0.06 | 76 | 1009.7 |
| 20260506212021 | 71 | 263 | 2.6 | 8.7 | 0.00 | 0.06 | 0.06 | 77 | 1009.6 |
| 20260506211543 | 71 | 315 | 1.7 | 8.7 | 0.00 | 0.06 | 0.06 | 76 | 1009.8 |
| 20260506211021 | 71 | 323 | 1.7 | 11.3 | 0.00 | 0.06 | 0.06 | 76 | 1009.8 |
| 20260506210521 | 71 | 238 | 3.5 | 11.3 | 0.00 | 0.06 | 0.06 | 76 | 1009.9 |
| 20260506210041 | 71 | 265 | 0.0 | 7.8 | 0.00 | 0.06 | 0.06 | 79 | 1009.9 |
| 20260506205520 | 71 | 239 | 0.0 | 7.8 | 0.00 | 0.06 | 0.06 | 77 | 1010.0 |
| 20260506205023 | 71 | 252 | 2.6 | 7.8 | 0.00 | 0.06 | 0.06 | 77 | 1010.1 |
| 20260506204541 | 71 | 284 | 2.6 | 7.0 | 0.00 | 0.06 | 0.06 | 77 | 1010.1 |
| 20260506204020 | 71 | 234 | 0.9 | 4.3 | 0.00 | 0.06 | 0.06 | 77 | 1010.0 |
| 20260506203520 | 71 | 180 | 0.9 | 4.3 | 0.00 | 0.06 | 0.06 | 77 | 1010.0 |
| 20260506203037 | 71 | 140 | 0.9 | 4.3 | 0.00 | 0.06 | 0.06 | 77 | 1010.0 |
| 20260506202520 | 71 | 157 | 1.7 | 5.2 | 0.00 | 0.06 | 0.06 | 76 | 1010.0 |
| 20260506202021 | 71 | 298 | 0.0 | 6.1 | 0.00 | 0.06 | 0.06 | 77 | 1009.9 |